[[{"header":{"parameterUnit":"m.s-1","parameterCategory":1,"la1":30.2991,"la2":30.254,"lo1":-89.0895,"lo2":-89.0444,"dy":0.0017,"dx":0.0017,"nx":28,"ny":28,"refTime":"2025-07-25T09:00:00:Z","depth":0,"parameterNumber":2,"parameterNumberName":"U-component_of_WINDS"},"data":[0,0,0,0,0,0,0,0,0,0,0,0,0,0,0,0,0,0,0,0,0,0,0,0,0,0,0,0,0,0,0,0,0,0,0,0,0,0,0,0,0,0,0,0,0,0,0,0,0,0,0,0,0,0,0,0,0,0,-0.41,-0.41,0,-0.4099,-0.4099,-0.4099,-0.4093,-0.4093,-0.4093,-0.4093,-0.4092,-0.4092,-0.4093,0,0,0,0,0,0,0,0,0,0,0,0,0,-0.4098,-0.4098,-0.41,-0.41,-0.41,-0.4099,-0.4099,-0.4099,-0.4093,-0.4093,-0.4093,-0.4093,-0.4092,-0.4092,-0.4093,0,0,0,0,0,0,0,0,0,0,0,0,0,-0.4098,-0.4098,-0.41,-0.4097,-0.4097,-0.4099,-0.4099,-0.4099,-0.4093,-0.4093,-0.4093,-0.4093,-0.4092,-0.4092,-0.4093,-0.4098,0,0,-0.4093,-0.4093,0,0,0,0,0,0,0,0,-0.4098,-0.4098,-0.4098,-0.4097,-0.4097,-0.4096,-0.4098,-0.4099,-0.4093,-0.4095,-0.4093,-0.4093,-0.4094,-0.4094,-0.4094,-0.4098,-0.4098,-0.4093,-0.4093,-0.4093,-0.4093,0,0,0,0,0,0,0,-0.4098,-0.4098,-0.41,-0.4098,-0.4097,-0.4096,-0.4096,-0.4098,-0.4095,-0.4095,-0.4094,-0.4094,-0.4094,-0.4094,-0.4094,-0.4098,-0.4093,-0.4093,-0.4093,-0.4093,-0.4107,-0.4108,0,0,0,0,0,0,-0.4098,-0.4098,-0.41,-0.41,-0.4097,-0.4096,-0.4096,-0.4097,-0.4095,-0.4095,-0.4094,-0.4094,-0.4094,-0.4094,-0.4094,-0.4101,-0.4093,-0.4093,-0.4094,-0.4107,-0.4108,-0.4108,0,0,0,0,0,0,-0.4098,-0.4099,-0.41,-0.4099,-0.4099,-0.4097,-0.4097,-0.4097,-0.4097,-0.4095,-0.4095,-0.4095,-0.4094,-0.4094,-0.4097,-0.4101,-0.4094,-0.4094,-0.4107,-0.4107,-0.4108,-0.4115,0,0,0,0,0,0,-0.4098,-0.4099,-0.41,-0.4099,-0.4099,-0.4103,-0.4097,-0.4097,-0.4097,-0.4097,-0.4096,-0.4096,-0.4093,-0.4097,-0.4098,-0.4101,-0.4094,-0.4107,-0.4107,-0.4108,-0.4114,-0.4116,-0.4117,0,0,0,0,0,-0.4098,-0.4102,-0.4101,-0.4101,-0.4101,-0.4103,-0.4103,-0.4101,-0.4098,-0.41,-0.4099,-0.4096,-0.41,-0.4097,-0.4098,-0.4102,-0.4106,-0.4107,-0.4108,-0.4114,-0.4115,-0.4117,0,0,0,0,0,0,-0.4104,-0.4102,-0.41,-0.4104,-0.4104,-0.4102,-0.4105,-0.4102,-0.4103,-0.4102,-0.4099,-0.4099,-0.4103,-0.4103,-0.4099,-0.4107,-0.4103,-0.4104,-0.4108,-0.4109,-0.411,-0.411,-0.4094,0,0,0,0,0,-0.4106,-0.4108,-0.4106,-0.4109,-0.4109,-0.4107,-0.4108,-0.4106,-0.4106,-0.4106,-0.4105,-0.4105,-0.4107,-0.4108,-0.4109,-0.4114,-0.4114,-0.4117,-0.4118,-0.4119,-0.412,-0.4124,-0.4125,-0.411,-0.411,-0.411,0,0,-0.411,-0.4109,-0.411,-0.411,-0.411,-0.4112,-0.4107,-0.4109,-0.4111,-0.4106,-0.4109,-0.4109,-0.4109,-0.4114,-0.4115,-0.4113,-0.4124,-0.412,-0.4121,-0.4121,-0.4124,-0.4126,-0.4127,-0.411,-0.411,-0.411,0,0,-0.4118,-0.4117,-0.412,-0.412,-0.412,-0.4118,-0.4119,-0.4118,-0.4117,-0.4121,-0.4117,-0.4119,-0.4122,-0.4123,-0.4123,-0.4132,-0.413,-0.4132,-0.4138,-0.4142,-0.4143,-0.4144,-0.4148,-0.415,-0.4133,-0.4133,-0.4133,0,-0.4123,-0.4125,-0.4122,-0.4125,-0.4126,-0.4121,-0.4125,-0.4125,-0.4125,-0.4126,-0.4123,-0.4127,-0.4127,-0.4132,-0.4134,-0.4134,-0.4136,-0.4133,-0.4143,-0.4144,-0.4145,-0.4149,-0.415,-0.4134,-0.4134,-0.4134,-0.4133,0,-0.4131,-0.4133,-0.4136,-0.4137,-0.4138,-0.4141,-0.4139,-0.414,-0.4138,-0.4137,-0.4141,-0.414,-0.4142,-0.4143,-0.4141,-0.4148,-0.4147,-0.4144,-0.4139,-0.4147,-0.4151,-0.4152,-0.4134,-0.4134,-0.4134,-0.4134,0,0,-0.4143,-0.4142,-0.4143,-0.4144,-0.4143,-0.4145,-0.4148,-0.415,-0.4152,-0.4152,-0.4155,-0.4158,-0.4155,-0.4156,-0.4154,-0.4157,-0.4165,-0.4154,-0.4153,-0.4156,-0.4174,-0.4177,-0.4178,-0.4163,-0.4163,-0.4164,-0.4174,0,-0.4151,-0.4157,-0.4154,-0.416,-0.4162,-0.4159,-0.4161,-0.4162,-0.4161,-0.4163,-0.4162,-0.4165,-0.4161,-0.4161,-0.4164,-0.4163,-0.4169,-0.4162,-0.4167,-0.4167,-0.4167,-0.418,-0.4183,-0.4193,-0.4175,-0.4176,-0.4176,0,-0.4161,-0.4163,-0.4169,-0.4169,-0.4169,-0.4172,-0.4174,-0.4176,-0.4176,-0.4176,-0.4177,-0.4174,-0.4178,-0.4173,-0.4179,-0.4175,-0.4176,-0.4176,-0.4177,-0.4177,-0.4172,-0.4182,-0.4196,-0.4197,-0.4178,-0.4177,-0.4177,0,-0.417,-0.4173,-0.4177,-0.4178,-0.4178,-0.418,-0.418,-0.418,-0.4182,-0.4183,-0.4184,-0.4186,-0.4187,-0.4189,-0.4187,-0.4184,-0.4194,-0.4188,-0.4194,-0.4194,-0.4196,-0.4196,-0.4211,-0.4196,-0.4196,-0.4196,-0.4196,0,-0.418,-0.4184,-0.4182,-0.4184,-0.4189,-0.4186,-0.4191,-0.4191,-0.4191,-0.4194,-0.4191,-0.4194,-0.4191,-0.4194,-0.4193,-0.4198,-0.4198,-0.4198,-0.4198,-0.4199,-0.4199,-0.4201,-0.42,-0.4196,-0.4196,-0.4196,-0.4196,0,-0.4191,-0.4189,-0.4194,-0.4193,-0.4193,-0.4197,-0.4197,-0.42,-0.4199,-0.4203,-0.4203,-0.4202,-0.4205,-0.4204,-0.4207,-0.4206,-0.4213,-0.4212,-0.4213,-0.4213,-0.4219,-0.4219,-0.4236,-0.4238,-0.4221,-0.4221,-0.4221,0,-0.4197,-0.42,-0.4201,-0.4202,-0.4203,-0.4205,-0.4207,-0.4205,-0.4206,-0.4208,-0.4211,-0.4214,-0.4216,-0.4221,-0.4221,-0.4224,-0.4223,-0.4228,-0.4223,-0.4224,-0.4224,-0.4224,-0.4225,-0.423,-0.423,-0.423,-0.423,0,-0.4209,-0.4209,-0.4211,-0.4213,-0.4215,-0.4217,-0.4218,-0.422,-0.4218,-0.422,-0.4223,-0.4225,-0.4229,-0.4232,-0.4234,-0.4235,-0.4233,-0.4232,-0.4233,-0.4235,-0.4236,-0.4236,-0.4217,-0.4232,-0.4231,-0.4231,-0.4231,-0.4231,-0.4219,-0.4222,-0.4223,-0.4225,-0.4226,-0.4228,-0.4231,-0.423,-0.4233,-0.4236,-0.4234,-0.4239,-0.424,-0.4243,-0.4244,-0.4247,-0.4245,-0.4247,-0.4248,-0.4249,-0.425,-0.4235,-0.4248,-0.4248,-0.4248,-0.4248,-0.4248,0,-0.4231,-0.4232,-0.4235,-0.4237,-0.4239,-0.4237,-0.4238,-0.424,-0.4244,-0.4245,-0.4248,-0.4252,-0.4256,-0.4256,-0.4259,-0.4262,-0.4261,-0.4263,-0.4263,-0.4263,-0.4251,-0.425,-0.4264,-0.4264,-0.4264,-0.4264,-0.4264,-0.4264,-0.4238,-0.4244,-0.4243,-0.4249,-0.4249,-0.4253,-0.4255,-0.4256,-0.4257,-0.4262,-0.4265,-0.4265,-0.4266,-0.427,-0.4273,-0.4273,-0.4275,-0.4277,-0.4277,-0.4266,-0.4264,-0.4263,-0.4261,-0.4277,-0.4277,-0.4289,-0.4289,-0.4289]},{"header":{"parameterUnit":"m.s-1","parameterCategory":1,"la1":30.2991,"la2":30.254,"lo1":-89.0895,"lo2":-89.0444,"dy":0.0017,"dx":0.0017,"nx":28,"ny":28,"refTime":"2025-07-25T09:00:00:Z","depth":0,"parameterNumber":3,"parameterNumberName":"V-component_of_WINDS"},"data":[0,0,0,0,0,0,0,0,0,0,0,0,0,0,0,0,0,0,0,0,0,0,0,0,0,0,0,0,0,0,0,0,0,0,0,0,0,0,0,0,0,0,0,0,0,0,0,0,0,0,0,0,0,0,0,0,0,0,4.746,4.7461,0,4.7528,4.7529,4.753,4.746,4.7457,4.7455,4.7452,4.7518,4.7523,4.7527,0,0,0,0,0,0,0,0,0,0,0,0,0,4.7262,4.7266,4.746,4.7461,4.7462,4.7528,4.7529,4.753,4.746,4.7457,4.7454,4.7451,4.7517,4.7522,4.7527,0,0,0,0,0,0,0,0,0,0,0,0,0,4.7341,4.7267,4.746,4.7435,4.7433,4.7528,4.7529,4.753,4.7461,4.7457,4.7453,4.7449,4.7515,4.7522,4.7528,4.7649,0,0,4.7548,4.7551,0,0,0,0,0,0,0,0,4.7337,4.7348,4.7438,4.7437,4.7435,4.7482,4.7484,4.757,4.7462,4.7451,4.7452,4.7447,4.7509,4.7516,4.7538,4.7653,4.7655,4.7548,4.7552,4.7555,4.7557,0,0,0,0,0,0,0,4.7331,4.7345,4.7487,4.7439,4.7438,4.7418,4.7425,4.75,4.7502,4.7451,4.7446,4.7456,4.7508,4.7532,4.7539,4.7656,4.7548,4.7554,4.7558,4.756,4.7869,4.7874,0,0,0,0,0,0,4.7329,4.7341,4.7485,4.7489,4.7375,4.7425,4.7433,4.7471,4.7501,4.7502,4.7459,4.7452,4.7523,4.7531,4.7541,4.7681,4.7555,4.7561,4.7565,4.7865,4.787,4.7875,0,0,0,0,0,0,4.7325,4.7343,4.7482,4.7414,4.743,4.7433,4.7476,4.7474,4.7498,4.7507,4.7506,4.7483,4.752,4.7532,4.7622,4.7683,4.7564,4.757,4.786,4.7867,4.7873,4.7966,0,0,0,0,0,0,4.732,4.7342,4.739,4.7415,4.7434,4.7564,4.748,4.7479,4.751,4.7501,4.7529,4.753,4.7517,4.7613,4.7629,4.769,4.7575,4.7855,4.7863,4.7871,4.7958,4.7975,4.799,0,0,0,0,0,4.7313,4.7413,4.7392,4.741,4.7494,4.7568,4.7578,4.7563,4.7515,4.7562,4.7567,4.7529,4.7674,4.7623,4.764,4.7704,4.7851,4.7861,4.787,4.795,4.7972,4.799,0,0,0,0,0,0,4.7394,4.7416,4.7393,4.7506,4.7535,4.7556,4.7615,4.7586,4.763,4.762,4.7597,4.7604,4.7699,4.7711,4.7653,4.7821,4.7754,4.7768,4.7809,4.783,4.7846,4.784,4.758,0,0,0,0,0,4.7426,4.7486,4.7501,4.7598,4.7614,4.7612,4.7644,4.7629,4.7659,4.7671,4.7682,4.7711,4.7763,4.7797,4.7846,4.796,4.7962,4.8012,4.8028,4.8041,4.8052,4.8109,4.813,4.7907,4.7907,4.7907,0,0,4.749,4.7509,4.7549,4.7615,4.7636,4.7696,4.7623,4.7691,4.7734,4.7681,4.7766,4.7776,4.7806,4.7908,4.7953,4.792,4.8115,4.8054,4.8064,4.8068,4.8121,4.8142,4.8161,4.7914,4.7913,4.7912,0,0,4.7638,4.766,4.7742,4.7764,4.7798,4.7795,4.7815,4.7839,4.7844,4.7929,4.7889,4.794,4.803,4.8052,4.8075,4.8229,4.8194,4.8245,4.8329,4.8384,4.8402,4.8417,4.8468,4.8487,4.8257,4.8257,4.8257,0,4.7713,4.7804,4.7787,4.7856,4.7885,4.784,4.792,4.7942,4.799,4.8009,4.7972,4.8082,4.81,4.8204,4.8241,4.8263,4.8281,4.8241,4.8401,4.8416,4.843,4.8479,4.8498,4.8262,4.8262,4.8261,4.8261,0,4.7893,4.7956,4.8018,4.8064,4.81,4.8175,4.8166,4.8204,4.8186,4.8186,4.8272,4.8291,4.8341,4.8365,4.8348,4.8466,4.8444,4.8405,4.8337,4.8458,4.8502,4.8521,4.8271,4.8269,4.8267,4.8265,0,0,4.8094,4.8129,4.8151,4.817,4.8202,4.825,4.8321,4.837,4.8401,4.8435,4.8491,4.8568,4.8531,4.8557,4.8542,4.8591,4.8706,4.8545,4.8545,4.8571,4.8833,4.8861,4.8883,4.8685,4.8688,4.8691,4.8829,0,4.824,4.8365,4.835,4.8468,4.8523,4.848,4.8541,4.8566,4.8568,4.8614,4.8616,4.8669,4.8618,4.8632,4.868,4.8683,4.8758,4.8673,4.8734,4.8737,4.8725,4.8907,4.8937,4.9067,4.8847,4.885,4.8853,0,4.8427,4.8467,4.859,4.861,4.8633,4.8689,4.873,4.8776,4.8802,4.88,4.8828,4.8804,4.8872,4.8805,4.8897,4.8839,4.8863,4.8868,4.8873,4.8875,4.88,4.8912,4.9108,4.9126,4.8881,4.8878,4.8876,0,4.8557,4.8641,4.8725,4.8743,4.877,4.8809,4.8822,4.8844,4.8873,4.891,4.8928,4.8972,4.8995,4.9028,4.9015,4.8968,4.9108,4.904,4.9105,4.9105,4.9135,4.9133,4.9335,4.9156,4.9155,4.9155,4.9155,0,4.872,4.8796,4.8783,4.8834,4.8917,4.8899,4.8981,4.8988,4.9008,4.9057,4.9023,4.907,4.9051,4.9096,4.9086,4.9162,4.9173,4.9171,4.9167,4.9173,4.9173,4.9187,4.9176,4.916,4.9159,4.9158,4.9157,0,4.8878,4.8873,4.8961,4.8979,4.8984,4.9045,4.9058,4.9105,4.9104,4.9167,4.9181,4.9178,4.923,4.922,4.9277,4.927,4.9363,4.935,4.9354,4.935,4.9414,4.9407,4.963,4.9657,4.9463,4.9465,4.9467,0,4.8981,4.9039,4.9062,4.9093,4.9108,4.916,4.9189,4.9172,4.9203,4.9235,4.9277,4.9326,4.9363,4.9447,4.9449,4.9491,4.9476,4.9551,4.9482,4.9485,4.9473,4.9469,4.9473,4.9564,4.9566,4.9568,4.957,0,4.9163,4.9157,4.9201,4.9244,4.9279,4.9312,4.9341,4.9368,4.9353,4.939,4.9442,4.9471,4.9528,4.9575,4.9614,4.9624,4.9594,4.9591,4.9608,4.9613,4.9612,4.961,4.9389,4.9586,4.9584,4.9583,4.9582,4.9582,4.9295,4.9342,4.9365,4.9414,4.9434,4.9461,4.9505,4.9509,4.9552,4.9597,4.9584,4.9642,4.9664,4.9713,4.9728,4.9771,4.9743,4.9768,4.9774,4.978,4.9786,4.9608,4.9779,4.9778,4.9778,4.9777,4.9777,0,4.9472,4.9484,4.953,4.9571,4.9608,4.9577,4.9607,4.964,4.9692,4.9715,4.9752,4.981,4.9855,4.986,4.9901,4.9935,4.9922,4.9946,4.9942,4.9944,4.981,4.979,4.9956,4.9956,4.9956,4.9956,4.9956,4.9956,4.9569,4.9646,4.9642,4.9728,4.9739,4.9796,4.9815,4.9839,4.9857,4.9923,4.996,4.9963,4.9978,5.002,5.0059,5.0059,5.0074,5.0104,5.0098,4.9972,4.9954,4.9937,4.9918,5.0108,5.0108,5.0228,5.0229,5.023]}]]